When you browse on this site, cookies collect data to enhance your experience and personalize the content and advertising you see.
Visit our Privacy Policy to learn more. By continuing to use the site, you agree to this use of cookies and data.
  • In Austria
  • List of Countries
  • For 7 days
  • Water Temperature
  • Weather Map
  • News
  • Weather Widgets
  • user-avatar
    Login

    Hourly Weather Puhovichi

    Today, 31 May, Sunday

    Time Temperature Precipitation Wind Pressure Humidity
    00:00 +13°C° 0 mm 5 mps 738 mmHg 95%
    01:00 +12°C° 0 mm 5 mps 739 mmHg 95%
    02:00 +11°C° 0 mm 4 mps 739 mmHg 95%
    03:00 +11°C° 0 mm 4 mps 740 mmHg 96%
    04:00 +11°C° 0 mm 3 mps 740 mmHg 96%
    05:00 +10°C° 0 mm 3 mps 740 mmHg 97%
    06:00 +12°C° 0 mm 3 mps 740 mmHg 94%
    07:00 +13°C° 0 mm 3 mps 741 mmHg 90%
    08:00 +14°C° 0 mm 4 mps 741 mmHg 86%
    09:00 +15°C° 0.5 mm 4 mps 742 mmHg 85%
    10:00 +15°C° 0.5 mm 4 mps 742 mmHg 84%
    11:00 +17°C° 0.5 mm 4 mps 743 mmHg 83%
    12:00 +17°C° 1.3 mm 4 mps 743 mmHg 83%
    13:00 +17°C° 1.3 mm 4 mps 743 mmHg 83%
    14:00 +17°C° 1.3 mm 5 mps 744 mmHg 82%
    15:00 +16°C° 1 mm 5 mps 744 mmHg 84%
    16:00 +15°C° 1 mm 6 mps 744 mmHg 86%
    17:00 +15°C° 1 mm 6 mps 744 mmHg 88%
    18:00 +14°C° 0.2 mm 6 mps 745 mmHg 88%
    19:00 +13°C° 0.2 mm 6 mps 745 mmHg 88%
    20:00 +11°C° 0.2 mm 6 mps 746 mmHg 88%
    21:00 +10°C° 0 mm 6 mps 746 mmHg 88%
    22:00 +10°C° 0 mm 5 mps 746 mmHg 88%
    23:00 +10°C° 0 mm 4 mps 747 mmHg 87%

    Tomorrow, 1 June, Monday

    Time Temperature Precipitation Wind Pressure Humidity
    00:00 +8°C° 0 mm 4 mps 747 mmHg 88%
    01:00 +8°C° 0 mm 4 mps 747 mmHg 89%
    02:00 +8°C° 0 mm 4 mps 748 mmHg 90%
    03:00 +7°C° 0 mm 4 mps 748 mmHg 88%
    04:00 +7°C° 0 mm 4 mps 748 mmHg 87%
    05:00 +6°C° 0 mm 5 mps 748 mmHg 85%
    06:00 +8°C° 0 mm 5 mps 748 mmHg 77%
    07:00 +9°C° 0 mm 6 mps 749 mmHg 69%
    08:00 +10°C° 0 mm 6 mps 749 mmHg 61%
    09:00 +10°C° 0 mm 6 mps 749 mmHg 59%
    10:00 +11°C° 0 mm 6 mps 749 mmHg 58%
    11:00 +11°C° 0 mm 6 mps 749 mmHg 56%
    12:00 +13°C° 0.1 mm 6 mps 749 mmHg 55%
    13:00 +13°C° 0.1 mm 6 mps 749 mmHg 54%
    14:00 +13°C° 0.1 mm 6 mps 749 mmHg 53%
    15:00 +13°C° 0.2 mm 6 mps 748 mmHg 57%
    16:00 +13°C° 0.2 mm 6 mps 748 mmHg 61%
    17:00 +11°C° 0.2 mm 6 mps 748 mmHg 65%
    18:00 +10°C° 0.1 mm 5 mps 748 mmHg 70%
    19:00 +10°C° 0.1 mm 4 mps 748 mmHg 76%
    20:00 +9°C° 0.1 mm 3 mps 748 mmHg 82%
    21:00 +7°C° 0 mm 4 mps 748 mmHg 85%
    22:00 +6°C° 0 mm 4 mps 748 mmHg 88%
    23:00 +6°C° 0 mm 4 mps 748 mmHg 91%

    Day after tomorrow, 2 June, Tuesday

    Time Temperature Precipitation Wind Pressure Humidity
    00:00 +6°C° 0 mm 4 mps 747 mmHg 90%
    01:00 +6°C° 0 mm 4 mps 747 mmHg 89%
    02:00 +6°C° 0 mm 4 mps 746 mmHg 88%
    03:00 +6°C° 0 mm 4 mps 746 mmHg 89%
    04:00 +6°C° 0 mm 5 mps 746 mmHg 90%
    05:00 +5°C° 0 mm 5 mps 745 mmHg 91%
    06:00 +6°C° 0 mm 5 mps 745 mmHg 89%
    07:00 +7°C° 0 mm 6 mps 744 mmHg 86%
    08:00 +8°C° 0 mm 6 mps 744 mmHg 83%
    09:00 +7°C° 0.6 mm 6 mps 744 mmHg 87%
    10:00 +7°C° 0.6 mm 6 mps 743 mmHg 90%
    11:00 +7°C° 0.6 mm 6 mps 743 mmHg 93%
    12:00 +7°C° 0.5 mm 6 mps 742 mmHg 93%
    13:00 +7°C° 0.5 mm 6 mps 742 mmHg 93%
    14:00 +7°C° 0.5 mm 6 mps 742 mmHg 93%
    15:00 +7°C° 0.3 mm 6 mps 741 mmHg 93%
    16:00 +7°C° 0.3 mm 6 mps 741 mmHg 93%
    17:00 +7°C° 0.3 mm 6 mps 740 mmHg 93%
    18:00 +8°C° 0.1 mm 5 mps 740 mmHg 94%
    19:00 +8°C° 0.1 mm 4 mps 740 mmHg 95%
    20:00 +8°C° 0.1 mm 4 mps 739 mmHg 96%
    21:00 +9°C° 0 mm 3 mps 739 mmHg 96%
    22:00 +9°C° 0 mm 3 mps 739 mmHg 97%
    23:00 +9°C° 0 mm 3 mps 739 mmHg 97%

    3 June, Wednesday

    Time Temperature Precipitation Wind Pressure Humidity
    00:00 +8°C° 0 mm 3 mps 739 mmHg 97%
    01:00 +7°C° 0 mm 3 mps 739 mmHg 98%
    02:00 +7°C° 0 mm 3 mps 738 mmHg 98%
    03:00 +7°C° 0 mm 3 mps 738 mmHg 98%
    04:00 +7°C° 0 mm 3 mps 738 mmHg 98%
    05:00 +7°C° 0 mm 3 mps 738 mmHg 98%
    06:00 +8°C° 0 mm 3 mps 738 mmHg 96%
    07:00 +8°C° 0 mm 3 mps 739 mmHg 94%
    08:00 +9°C° 0 mm 3 mps 739 mmHg 92%
    09:00 +10°C° 0.3 mm 4 mps 739 mmHg 91%
    10:00 +10°C° 0.3 mm 4 mps 739 mmHg 90%
    11:00 +10°C° 0.3 mm 4 mps 739 mmHg 88%
    12:00 +11°C° 0.4 mm 4 mps 739 mmHg 86%
    13:00 +12°C° 0.4 mm 4 mps 739 mmHg 83%
    14:00 +13°C° 0.4 mm 4 mps 739 mmHg 80%
    15:00 +13°C° 0.7 mm 4 mps 739 mmHg 81%
    16:00 +13°C° 0.7 mm 3 mps 739 mmHg 81%
    17:00 +13°C° 0.7 mm 3 mps 738 mmHg 82%
    18:00 +12°C° 0.5 mm 3 mps 738 mmHg 86%
    19:00 +11°C° 0.5 mm 3 mps 738 mmHg 89%
    20:00 +10°C° 0.5 mm 2 mps 739 mmHg 93%
    21:00 +9°C° 0 mm 2 mps 739 mmHg 94%
    22:00 +9°C° 0 mm 2 mps 739 mmHg 95%
    23:00 +8°C° 0 mm 2 mps 739 mmHg 97%

    4 June, Thursday

    Time Temperature Precipitation Wind Pressure Humidity
    00:00 +7°C° 0 mm 2 mps 740 mmHg 97%
    01:00 +8°C° 0 mm 1 mps 740 mmHg 98%
    02:00 +7°C° 0 mm 1 mps 740 mmHg 98%
    03:00 +8°C° 0 mm 1 mps 740 mmHg 98%
    04:00 +8°C° 0 mm 1 mps 740 mmHg 98%
    05:00 +8°C° 0 mm 1 mps 740 mmHg 98%
    06:00 +9°C° 0 mm 1 mps 740 mmHg 97%
    07:00 +10°C° 0 mm 1 mps 741 mmHg 96%
    08:00 +10°C° 0 mm 1 mps 741 mmHg 95%
    09:00 +11°C° 0 mm 1 mps 741 mmHg 94%
    10:00 +11°C° 0 mm 1 mps 741 mmHg 93%
    11:00 +12°C° 0 mm 1 mps 742 mmHg 92%
    12:00 +12°C° 0.1 mm 1 mps 742 mmHg 89%
    13:00 +13°C° 0.1 mm 2 mps 741 mmHg 87%
    14:00 +13°C° 0.1 mm 2 mps 741 mmHg 84%
    15:00 +14°C° 0.1 mm 2 mps 741 mmHg 81%
    16:00 +15°C° 0.1 mm 2 mps 741 mmHg 77%
    17:00 +15°C° 0.1 mm 2 mps 741 mmHg 74%
    18:00 +14°C° 0 mm 2 mps 741 mmHg 78%
    19:00 +13°C° 0 mm 2 mps 741 mmHg 82%
    20:00 +12°C° 0 mm 2 mps 741 mmHg 87%
    21:00 +10°C° 0 mm 2 mps 741 mmHg 89%
    22:00 +9°C° 0 mm 2 mps 741 mmHg 92%
    23:00 +8°C° 0 mm 2 mps 741 mmHg 95%

    5 June, Friday

    Time Temperature Precipitation Wind Pressure Humidity
    00:00 +8°C° 0 mm 2 mps 741 mmHg 95%
    01:00 +8°C° 0 mm 2 mps 741 mmHg 96%
    02:00 +7°C° 0 mm 2 mps 741 mmHg 96%
    03:00 +7°C° 0 mm 2 mps 741 mmHg 96%
    04:00 +7°C° 0 mm 2 mps 741 mmHg 96%
    05:00 +7°C° 0 mm 2 mps 741 mmHg 96%
    06:00 +9°C° 0 mm 2 mps 741 mmHg 89%
    07:00 +13°C° 0 mm 2 mps 741 mmHg 83%
    08:00 +15°C° 0 mm 2 mps 742 mmHg 77%
    09:00 +16°C° 0.2 mm 2 mps 742 mmHg 75%
    10:00 +17°C° 0.2 mm 2 mps 742 mmHg 73%
    11:00 +18°C° 0.2 mm 2 mps 742 mmHg 71%
    12:00 +18°C° 0.5 mm 3 mps 741 mmHg 71%
    13:00 +19°C° 0.5 mm 3 mps 741 mmHg 71%
    14:00 +19°C° 0.5 mm 3 mps 741 mmHg 71%
    15:00 +20°C° 0.2 mm 3 mps 741 mmHg 70%
    16:00 +20°C° 0.2 mm 3 mps 741 mmHg 68%
    17:00 +20°C° 0.2 mm 3 mps 741 mmHg 67%
    18:00 +18°C° 0.1 mm 2 mps 741 mmHg 74%
    19:00 +17°C° 0.1 mm 2 mps 741 mmHg 81%
    20:00 +15°C° 0.1 mm 1 mps 741 mmHg 87%
    21:00 +14°C° 0 mm 1 mps 742 mmHg 89%
    22:00 +14°C° 0 mm 1 mps 742 mmHg 91%
    23:00 +13°C° 0 mm 1 mps 742 mmHg 92%
    Show more